Hourly Weather Roundup
Issued by NWS Central Illinois

Home | Current Version | Previous Version | Text Only | Print | Product List | Glossary On
Versions: 1 2 3 4 5 6 7 8 9 10 11 12 13 14 15 16 17 18 19 20 21 22 23 24 25 26 27 28 29 30 31 32 33 34 35 36 37 38 39 40 41 42 43 44 45 46 47 48 49 50
728
NZUS43 KILX 240310
HWRILX

Area Weather Roundup
National Weather Service Lincoln IL
1000 PM CDT FRI JUN 23 2017

NOTE:  "FAIR" indicates few or no clouds below 12,000 feet, with
       no sigificant weather and/or obstructions to visibility.


CITY           SKY/WX    TMP DP  RH WIND       PRES   REMARKS
Bloomington    CLOUDY    69  55  60 NW14      29.90R
Champaign      MOCLDY    71  56  58 NW15G23   29.88R
Danville       PTCLDY    68  59  71 W10       29.82R
Decatur        CLOUDY    71  57  61 NW13G21   29.90R
Effingham      PTCLDY    68  66  96 CALM      29.90R
Flora          MOCLDY    72  62  71 W6        29.89R
Galesburg      CLEAR     64  56  76 W8        29.93R
Jacksonville   CLEAR     69  55  61 NW8       29.93R
Lacon          CLEAR     67  56  66 NW9       29.88R
Lawrenceville  CLOUDY    70  68  93 W5        29.88R
Litchfield     CLOUDY    71  56  59 NW9       29.92R
$$


CITY           SKY/WX    TMP DP  RH WIND       PRES   REMARKS
Lincoln        CLOUDY    71  55  58 NW5       29.90R
Macomb         CLEAR     64  56  77 NW8       29.95R
Mattoon        PTCLDY    70  60  70 SW6       29.86R
Mt Carmel AP   PTCLDY    67  65  91 W3        29.88R
Olney-Noble AP PTCLDY    67  67 100 CALM      29.89R
Paris AP       PTCLDY    64  62  93 CALM      29.86R
Peoria         CLEAR     68  55  63 VRB3      29.91R
Pontiac        CLOUDY    67  60  77 W10       29.88R
Rantoul        CLOUDY    71  60  69 NW9       29.87R
Robinson       CLOUDY    66  64  90 W5        29.87R
Springfield    CLOUDY    73  56  54 NW9       29.91R
Taylorville    PTCLDY    72  56  57 N13G18    29.92R
$$

...REGIONAL REPORTS...


CITY           SKY/WX    TMP DP  RH WIND       PRES   REMARKS
Chicago O`Hare PTCLDY    71  55  56 NW14      29.81R
Kankakee       CLOUDY    70  57  64 W9        29.84R
Moline         CLEAR     69  54  58 NW12      29.90R
Mount Sterling CLEAR     66  54  64 NW7       29.94R
Mount Vernon   PTCLDY    65  64  97 CALM      29.90R
Pittsfield     CLEAR     70  56  62 NW3       29.96R
Quincy         CLEAR     67  56  67 NW7       29.95R
Rockford       CLEAR     67  53  61 NW9       29.86R
$$


CITY           SKY/WX    TMP DP  RH WIND       PRES   REMARKS
Burlington     CLEAR     66  55  67 W3        29.94R
Cedar Rapids   CLEAR     60  57  89 W7        29.92R
Des Moines     MOCLDY    68  50  52 NW7       30.00R
Kirksville     CLEAR     65  55  70 NW7       30.00R
Ottumwa        CLEAR     65  53  65 NW9       29.97R
St Louis       CLOUDY    76  53  44 NW8       29.93R
$$


CITY           SKY/WX    TMP DP  RH WIND       PRES   REMARKS
Terre Haute    PTCLDY    67  64  90 CALM      29.85R
Evansville     CLOUDY    73  69  87 CALM      29.89R
Indianapolis   CLOUDY    65  60  84 W6        29.84R
Lafayette      CLEAR     65  64  97 CALM      29.81R
Madison        PTCLDY    64  54  69 VRB5      29.83R
Milwaukee      PTCLDY    70  52  52 W10       29.79R
$$






USA.gov is the U.S. government's official web portal to all federal, state and local government web resources and services.